Total_Precipitation_Accumulation
0.02 0.05 0.22 0.28 0.26 0.25 0.28 0.28 0.25 0.23 0.25 0.27 0.28 0.29 0.29 0.28 0.26 0.25 0.25 0.24 0.24 0.27 0.33 0.36 0.38 0.36 0.32 0.31 0.33 0.34 0.32 0.31 0.26 0.22 0.23 0.26 0.25 0.22 0.18 0.17 0.14 0.23 0.30
0.02 0.05 0.18 0.23 0.24 0.26 0.28 0.26 0.23 0.20 0.22 0.24 0.24 0.25 0.25 0.24 0.24 0.25 0.24 0.24 0.25 0.28 0.32 0.34 0.33 0.29 0.26 0.28 0.35 0.35 0.29 0.23 0.18 0.15 0.14 0.15 0.22 0.24 0.22 0.21 0.20 0.29 0.29
0.02 0.05 0.13 0.20 0.23 0.28 0.28 0.25 0.22 0.20 0.20 0.21 0.22 0.24 0.24 0.23 0.22 0.22 0.23 0.25 0.29 0.33 0.33 0.31 0.28 0.26 0.27 0.32 0.31 0.32 0.29 0.22 0.13 0.12 0.11 0.16 0.24 0.28 0.27 0.25 0.23 0.26 0.26
0.01 0.03 0.08 0.18 0.23 0.28 0.28 0.26 0.24 0.21 0.22 0.22 0.22 0.23 0.25 0.25 0.23 0.21 0.22 0.28 0.32 0.38 0.43 0.38 0.30 0.29 0.33 0.34 0.26 0.26 0.30 0.25 0.14 0.08 0.06 0.16 0.33 0.41 0.34 0.31 0.25 0.24 0.26
0.01 0.02 0.08 0.18 0.24 0.28 0.29 0.30 0.29 0.28 0.26 0.25 0.24 0.23 0.24 0.24 0.24 0.22 0.21 0.25 0.30 0.36 0.39 0.39 0.34 0.34 0.32 0.29 0.23 0.23 0.35 0.36 0.21 0.05 0.05 0.10 0.26 0.55 0.37 0.33 0.28 0.26 0.25
0.01 0.03 0.09 0.19 0.27 0.29 0.30 0.33 0.33 0.33 0.32 0.32 0.30 0.29 0.28 0.27 0.26 0.23 0.21 0.21 0.21 0.26 0.32 0.33 0.33 0.33 0.35 0.32 0.26 0.29 0.43 0.50 0.25 0.09 0.10 0.13 0.26 0.52 0.40 0.36 0.32 0.29 0.27
0.02 0.04 0.10 0.22 0.30 0.32 0.33 0.35 0.36 0.37 0.40 0.40 0.39 0.37 0.34 0.32 0.30 0.26 0.25 0.23 0.18 0.19 0.23 0.27 0.30 0.32 0.35 0.34 0.33 0.41 0.53 0.51 0.25 0.24 0.16 0.14 0.28 0.48 0.48 0.42 0.37 0.33 0.30
0.02 0.05 0.13 0.27 0.34 0.35 0.35 0.38 0.40 0.41 0.45 0.47 0.46 0.44 0.40 0.37 0.34 0.33 0.33 0.29 0.23 0.18 0.18 0.20 0.22 0.28 0.30 0.29 0.34 0.46 0.52 0.34 0.13 0.10 0.09 0.12 0.26 0.49 0.69 0.62 0.47 0.39 0.35
0.04 0.07 0.14 0.26 0.35 0.39 0.40 0.41 0.42 0.45 0.47 0.49 0.50 0.48 0.44 0.37 0.36 0.37 0.38 0.32 0.28 0.24 0.20 0.18 0.17 0.18 0.20 0.22 0.27 0.30 0.28 0.19 0.09 0.14 0.10 0.16 0.27 0.57 0.86 0.80 0.61 0.46 0.39
0.07 0.11 0.17 0.27 0.35 0.39 0.43 0.46 0.44 0.46 0.48 0.49 0.52 0.51 0.46 0.40 0.38 0.36 0.33 0.30 0.29 0.28 0.25 0.19 0.17 0.16 0.14 0.14 0.16 0.17 0.14 0.11 0.06 0.12 0.19 0.21 0.23 0.55 0.90 0.89 0.75 0.60 0.50
0.15 0.18 0.22 0.31 0.39 0.42 0.43 0.46 0.48 0.49 0.49 0.49 0.50 0.49 0.49 0.44 0.40 0.37 0.33 0.29 0.29 0.29 0.25 0.22 0.19 0.17 0.13 0.09 0.08 0.09 0.07 0.04 0.09 0.16 0.19 0.18 0.24 0.55 0.90 0.95 0.84 0.72 0.64
0.18 0.21 0.26 0.34 0.40 0.46 0.46 0.49 0.51 0.47 0.46 0.44 0.41 0.42 0.43 0.43 0.39 0.35 0.33 0.32 0.33 0.32 0.29 0.28 0.24 0.18 0.14 0.12 0.13 0.12 0.04 0.03 0.08 0.09 0.11 0.12 0.27 0.56 0.86 0.96 0.94 0.83 0.79
0.18 0.22 0.27 0.35 0.44 0.49 0.49 0.48 0.48 0.45 0.44 0.43 0.40 0.43 0.48 0.49 0.45 0.43 0.39 0.37 0.36 0.34 0.37 0.39 0.37 0.29 0.27 0.26 0.26 0.20 0.12 0.08 0.06 0.06 0.05 0.08 0.18 0.40 0.70 0.90 1.00 0.99 0.98
0.24 0.26 0.29 0.38 0.48 0.52 0.53 0.51 0.47 0.41 0.39 0.40 0.39 0.42 0.47 0.49 0.46 0.42 0.40 0.37 0.37 0.37 0.38 0.42 0.43 0.38 0.33 0.28 0.29 0.26 0.23 0.18 0.11 0.08 0.06 0.07 0.10 0.18 0.36 0.61 0.84 1.01 1.08
0.24 0.28 0.31 0.37 0.47 0.53 0.58 0.58 0.51 0.42 0.36 0.35 0.36 0.35 0.35 0.38 0.40 0.36 0.31 0.27 0.27 0.29 0.31 0.32 0.32 0.34 0.33 0.30 0.27 0.26 0.26 0.24 0.19 0.15 0.12 0.11 0.09 0.12 0.19 0.32 0.54 0.86 1.07
0.23 0.28 0.33 0.38 0.46 0.56 0.58 0.62 0.57 0.49 0.39 0.37 0.36 0.33 0.31 0.31 0.31 0.29 0.24 0.19 0.17 0.17 0.18 0.18 0.17 0.18 0.20 0.24 0.23 0.21 0.19 0.19 0.22 0.23 0.22 0.21 0.14 0.12 0.16 0.24 0.37 0.59 0.89
0.23 0.30 0.35 0.41 0.48 0.56 0.60 0.63 0.63 0.57 0.50 0.43 0.38 0.36 0.31 0.30 0.30 0.29 0.24 0.19 0.15 0.14 0.15 0.15 0.13 0.13 0.14 0.16 0.18 0.18 0.16 0.16 0.19 0.24 0.26 0.26 0.23 0.19 0.18 0.22 0.30 0.42 0.65
0.25 0.32 0.39 0.42 0.50 0.57 0.65 0.68 0.64 0.62 0.54 0.48 0.43 0.40 0.36 0.32 0.32 0.32 0.29 0.23 0.18 0.16 0.15 0.16 0.15 0.15 0.15 0.15 0.18 0.22 0.20 0.19 0.20 0.24 0.28 0.27 0.27 0.25 0.21 0.21 0.28 0.39 0.54
0.26 0.33 0.39 0.42 0.47 0.56 0.66 0.76 0.76 0.67 0.60 0.53 0.48 0.44 0.41 0.38 0.33 0.32 0.32 0.29 0.26 0.24 0.21 0.18 0.17 0.17 0.18 0.19 0.22 0.24 0.26 0.24 0.21 0.23 0.27 0.32 0.33 0.30 0.31 0.24 0.24 0.32 0.46
0.25 0.34 0.41 0.43 0.48 0.58 0.71 0.79 0.86 0.78 0.65 0.58 0.56 0.50 0.47 0.45 0.41 0.36 0.34 0.32 0.31 0.30 0.28 0.24 0.21 0.21 0.21 0.21 0.22 0.23 0.26 0.29 0.30 0.28 0.32 0.42 0.42 0.34 0.34 0.34 0.30 0.24 0.28
0.27 0.36 0.41 0.44 0.50 0.60 0.67 0.76 0.77 0.77 0.67 0.58 0.52 0.54 0.52 0.50 0.48 0.45 0.40 0.35 0.34 0.34 0.32 0.28 0.25 0.22 0.19 0.18 0.22 0.22 0.23 0.24 0.23 0.24 0.28 0.41 0.53 0.55 0.49 0.48 0.48 0.40 0.30
0.27 0.35 0.42 0.44 0.47 0.52 0.54 0.61 0.67 0.66 0.62 0.61 0.54 0.50 0.53 0.51 0.49 0.48 0.46 0.39 0.32 0.31 0.30 0.28 0.26 0.25 0.21 0.15 0.17 0.23 0.20 0.18 0.20 0.19 0.17 0.25 0.36 0.45 0.47 0.50 0.55 0.57 0.48
0.25 0.32 0.38 0.45 0.44 0.49 0.53 0.62 0.69 0.71 0.67 0.66 0.63 0.53 0.49 0.49 0.48 0.44 0.42 0.39 0.35 0.30 0.29 0.28 0.25 0.26 0.26 0.20 0.18 0.31 0.38 0.25 0.16 0.10 0.11 0.16 0.19 0.22 0.26 0.33 0.41 0.47 0.54
0.23 0.31 0.37 0.46 0.51 0.49 0.55 0.61 0.60 0.60 0.60 0.54 0.53 0.51 0.49 0.48 0.46 0.44 0.40 0.37 0.35 0.33 0.31 0.29 0.28 0.25 0.27 0.28 0.23 0.23 0.28 0.30 0.33 0.19 0.06 0.06 0.06 0.07 0.08 0.13 0.21 0.28 0.37
0.23 0.30 0.38 0.44 0.54 0.54 0.54 0.56 0.55 0.51 0.51 0.52 0.54 0.56 0.54 0.54 0.53 0.47 0.42 0.38 0.34 0.31 0.31 0.31 0.32 0.32 0.31 0.32 0.30 0.26 0.23 0.20 0.24 0.34 0.17 0.06 0.06 0.06 0.06 0.07 0.09 0.13 0.21
0.23 0.29 0.34 0.42 0.50 0.57 0.57 0.58 0.55 0.50 0.48 0.54 0.58 0.63 0.61 0.63 0.63 0.57 0.49 0.41 0.36 0.31 0.29 0.30 0.32 0.34 0.34 0.33 0.31 0.30 0.33 0.33 0.27 0.32 0.29 0.11 0.06 0.05 0.06 0.06 0.06 0.07 0.13